Flag for U.S.A. Weather past 2 weeks in Prudhoe Bay, Alaska, U.S.A.

Now
40 °F

Overcast.


Feels Like: 34 °F
Forecast: 33 / 39 °F
Wind: 8 mph from North

Location: Deadhorse Airport

Current Time: Jul 27, 2015 at 10:47:54 PM

Latest Report: Jul 27, 2015 at 9:53 PM


Visibility: 10 mi

Pressure: 29.85 "Hg

Humidity: 80%

Dew point: 34 °F

Location of Prudhoe BayLocation

Historic Weather in Prudhoe Bay — Graph

°F

Prudhoe Bay temperature yesterday

Maximum temperature yesterday: 44 °F (at 3:53 PM)
Minimum temperature yesterday: 38 °F (at 12:53 AM)
Average temperature yesterday: 41 °F

Past Weeks' High & Low Weather Summary

 TemperatureHumidityPressure
High58 °F (Jul 17, 2:53 PM)97% (Jul 16, 5:53 AM)30.18 "Hg (Jul 16, 5:53 AM)
Low35 °F (Jul 13, 4:53 AM)61% (Jul 14, 12:53 PM)29.51 "Hg (Jul 17, 11:53 AM)
Average43 °F85%29.85 "Hg
* Reported Jul 12 9:53 PM — Jul 27 9:53 PM, Prudhoe Bay, Weather by CustomWeather, © 2015

Note: Actual official high and low records may vary slightly from our data, if they occured in-between our weather recording intervals... More about our weather records

Advertising

Prudhoe Bay weather history for previous 24 hours

 ConditionsComfort  
Time TempWeatherWind HumidityBarometerVisibility
9:53 PM
Mon, Jul 27
40 °FOvercast.8 mph80%29.85 "Hg10 mi
8:53 PM41 °FOvercast.8 mph76%29.85 "Hg10 mi
7:53 PM43 °FMostly cloudy.10 mph74%29.84 "Hg10 mi
6:53 PM44 °FPartly sunny.14 mph73%29.84 "Hg10 mi
5:53 PM47 °FPassing clouds.10 mph69%29.83 "Hg10 mi
4:53 PM45 °FPartly sunny.12 mph74%29.83 "Hg10 mi
3:53 PM47 °FOvercast.7 mph71%29.83 "Hg10 mi
2:53 PM47 °FOvercast.5 mph71%29.83 "Hg10 mi
1:53 PM45 °FOvercast.9 mph76%29.83 "Hg10 mi
12:53 PM43 °FOvercast.8 mph79%29.82 "Hg10 mi
11:53 AM43 °FLow clouds.6 mph79%29.82 "Hg10 mi
10:53 AM42 °FLow clouds.8 mph82%29.83 "Hg10 mi
9:53 AM42 °FLow clouds.8 mph82%29.82 "Hg10 mi
8:53 AM41 °FLow clouds.6 mph86%29.82 "Hg10 mi
8:02 AM40 °FFog.5 mph93%29.82 "Hg5 mi
6:55 AM40 °FFog.3 mph93%29.82 "Hg2 mi
5:53 AM39 °FFog.5 mph93%29.82 "Hg1 mi
4:53 AM39 °FLight rain. Fog.6 mph93%29.81 "Hg1 mi
3:53 AM39 °FFog.7 mph93%29.81 "Hg3 mi
2:53 AM39 °FLight rain. Fog.5 mph93%29.80 "Hg2 mi
1:53 AM39 °FFog.6 mph93%29.81 "Hg3 mi
12:53 AM39 °FLow clouds.5 mph89%29.80 "Hg10 mi
11:53 PM
Sun, Jul 26
40 °FMostly cloudy.6 mph86%29.80 "Hg10 mi
10:53 PM41 °FMostly cloudy.6 mph82%29.79 "Hg10 mi
Weather by CustomWeather, © 2015

See weather overviewHow to use our weather pages